sat.trackr.live / text

‹ back to catalog

STARLINK-31417

NORAD 59216 · 2024-046R

PAYLOAD ACTIVE UNKNOWN

§ Identity

Operator
Country
US
Launch date
2024-03-11
Launch site
AFWTR
Launch vehicle
Mass (kg)
RCS (m²)

Purposes: comms

External: N2YO · Heavens-Above · Gunter

§ Orbital elements

Epoch: 2026-05-25T00:44:27.968064Z

Period
94.11 min
Inclination
53.1591°
Eccentricity
0.0001288
Mean motion
15.30180359 rev/d
Perigee alt
474.4 km
Apogee alt
476.2 km
Semi-major
6,853.4 km
B*
7.6579e-5
RAAN
161.0314°
Arg perigee
75.2984°
Mean anomaly
284.8160°
Rev number
12,460

§ Raw data

STARLINK-314171 59216U 24046R   26145.03087926  .00001908  00000+0  76579-4 0  99972 59216  53.1591 161.0314 0001288  75.2984 284.8160 15.30180359124606

JSON: /api/v1/satellites/59216 · /tle

For live sub-satellite position, see the globe view (requires WebGL).

§ Visibility from observer

Set your observer location to see the next 7 days of passes ≥ 10°. The values pass through the URL so the page stays shareable.

No JS? Fill the form by hand. The geolocation button needs JavaScript.